RH
60 72 78 65 54 51 48 55 56 47 37 35 40 42 37 31 28 28 50 58 58 60 52 62 81 97 96 98 100 99 99 100 100 99 99 89 81 86 89 93 84 82 92 98
70 79 55 52 54 54 54 56 59 47 40 41 47 44 35 34 28 28 37 57 59 57 60 60 60 62 69 88 99 99 95 84 68 53 47 38 48 41 34 38 40 47 54 47
65 50 48 54 58 61 60 63 58 53 45 43 42 44 40 32 32 37 38 46 53 60 65 65 65 58 48 45 41 40 40 37 33 31 32 36 40 39 41 41 42 44 47 48
59 43 52 56 61 57 69 54 52 54 56 60 39 52 41 36 40 40 45 58 58 60 62 64 69 64 52 47 44 42 43 42 42 42 36 37 44 49 55 60 61 58 60 62
52 58 52 61 58 53 55 44 54 53 62 54 50 56 44 38 43 41 52 58 57 56 57 64 66 58 51 44 42 46 48 44 40 36 38 45 51 53 47 38 34 32 31 30
37 47 45 43 43 47 45 47 53 57 64 82 61 53 42 46 38 43 47 54 52 52 53 56 56 58 56 48 43 40 34 39 43 43 39 35 33 34 35 36 38 37 36 32
58 46 51 43 57 51 54 58 81 81 80 79 47 50 36 36 38 38 44 50 48 42 46 52 59 58 53 44 38 38 37 34 32 29 26 24 28 35 40 44 49 50 48 46
75 79 50 55 46 58 61 53 77 81 77 62 50 60 41 33 34 37 41 44 40 40 41 51 57 48 48 48 44 37 29 31 30 26 24 27 33 40 46 52 55 58 60 61
67 62 48 48 46 42 65 68 42 67 79 90 70 56 34 34 38 43 45 39 36 36 40 52 48 40 44 45 35 30 30 31 28 21 22 32 38 46 53 52 55 58 55 58
46 66 44 49 46 42 51 46 66 69 84 85 70 74 60 45 47 46 44 37 32 33 46 48 46 42 46 36 32 30 29 25 20 20 30 40 47 52 58 63 58 58 65 72
46 62 57 50 58 56 55 63 59 60 80 70 68 56 63 44 44 46 39 30 29 36 45 45 46 44 42 35 31 30 25 22 24 33 44 52 56 60 65 64 65 74 80 80
47 54 61 59 44 41 44 53 55 70 79 91 86 55 41 46 42 38 28 25 27 36 40 42 51 51 40 32 31 28 25 29 33 47 57 61 64 65 66 72 82 87 94 99
49 64 70 77 59 60 56 52 51 77 84 74 84 61 43 41 38 30 27 27 30 38 38 45 58 54 39 33 28 27 29 33 43 62 66 62 64 74 85 95 99 100 99 98
47 57 68 69 55 58 63 58 54 60 73 60 66 54 46 44 35 32 30 28 31 32 35 48 50 48 37 30 29 31 34 40 64 65 62 68 78 86 97 96 96 97 98 100
53 78 73 63 45 48 46 54 57 62 61 68 53 58 53 39 31 30 28 32 32 33 37 45 45 46 37 35 34 36 40 66 66 65 69 78 87 93 96 99 99 100 99 100
73 97 82 82 56 60 65 52 52 57 56 56 52 53 41 32 31 34 32 32 31 30 37 40 42 42 40 37 36 40 66 65 67 70 78 88 92 99 98 98 98 99 100 100
98 94 100 95 76 70 90 68 62 53 50 50 61 48 34 35 32 32 33 31 29 31 37 39 38 39 36 34 39 64 68 69 70 80 89 94 98 99 99 100 100 100 100 100
96 96 100 100 95 97 76 58 50 58 49 43 42 49 39 41 31 35 32 30 28 31 37 37 37 35 34 41 64 71 69 72 81 90 96 99 99 100 99 100 100 100 100 99
86 96 99 98 97 100 82 60 66 60 57 44 43 49 52 50 41 50 43 29 30 36 37 36 30 31 39 62 71 70 75 83 94 95 99 99 100 100 100 100 100 99 99 98
97 94 99 98 98 96 60 46 57 52 88 55 45 51 56 49 66 57 50 41 44 44 36 35 34 40 61 74 74 79 88 97 95 100 99 99 99 100 100 100 100 98 99 100
99 99 96 97 97 92 72 54 51 88 68 52 44 44 62 61 51 53 50 45 40 42 40 32 39 58 72 79 83 93 98 99 99 99 100 99 99 100 99 100 99 99 100 93
89 94 98 98 97 92 60 61 68 60 40 60 51 52 60 56 62 56 48 45 50 51 52 43 65 80 85 86 97 99 99 99 98 100 99 99 99 100 100 99 98 100 98 91
87 79 82 74 77 61 52 54 46 41 41 42 50 45 55 58 54 53 48 46 47 50 56 58 76 98 93 95 100 99 98 96 99 99 98 99 99 99 99 99 99 98 98 95
92 68 86 72 65 56 49 42 35 32 34 41 41 40 40 49 47 44 46 49 50 54 74 78 100 100 100 100 99 95 92 99 99 99 95 98 98 99 98 98 97 99 99 99
78 73 89 87 71 53 46 36 38 43 42 41 39 37 41 46 44 42 51 52 55 72 77 81 92 91 92 93 93 97 100 100 99 99 96 95 98 98 99 100 100 100 100 100
80 76 76 78 69 56 52 48 42 39 38 36 38 42 46 39 45 46 49 56 74 81 81 89 86 87 92 92 96 99 97 95 98 95 92 96 99 97 100 98 98 99 95 95
Wind_Speed
4 5 14 17 14 7 3 6 7 4 5 3 8 7 10 12 6 4 6 8 7 6 3 8 12 16 18 18 19 17 17 16 16 14 11 9 8 5 4 2 5 9 11 11
4 21 21 10 10 13 10 7 6 4 8 2 6 17 16 9 6 7 11 9 9 6 6 4 15 22 26 28 26 26 24 22 18 16 14 11 9 7 4 4 5 6 5 7
24 15 19 15 13 18 19 19 7 5 4 6 3 16 7 7 5 5 7 6 7 11 11 7 9 20 24 26 26 25 23 22 20 17 14 10 7 3 2 5 5 5 8 10
16 25 15 15 24 15 19 10 12 10 4 9 4 10 5 5 8 5 3 8 9 9 6 7 8 13 20 20 21 21 20 18 15 12 10 8 7 6 7 9 10 11 13 15
19 13 25 15 22 17 11 11 13 12 7 4 4 6 4 3 6 9 8 8 9 9 9 8 8 18 19 20 20 20 19 14 12 9 7 7 7 5 5 9 13 17 19 22
31 5 16 33 16 19 6 4 4 3 4 8 8 8 21 8 10 5 3 8 13 12 9 8 13 19 20 21 21 20 18 13 11 10 9 7 6 7 11 14 17 19 22 26
14 24 3 8 9 14 9 7 2 3 4 9 15 10 24 3 6 9 14 14 13 10 11 9 9 12 20 21 19 18 17 15 11 8 6 7 9 11 13 16 19 24 28 32
14 9 28 9 13 10 20 15 6 11 8 7 7 12 11 4 4 6 12 16 10 9 9 10 8 15 20 19 17 17 14 12 7 5 6 8 11 14 16 19 23 26 30 33
18 19 4 17 7 18 6 14 21 4 3 3 5 6 4 2 4 7 12 14 15 14 11 11 10 19 21 21 19 16 11 7 3 7 9 11 14 16 19 24 27 32 36 38
12 7 8 18 13 19 16 16 9 6 6 9 8 7 8 5 8 8 14 17 12 10 9 8 7 16 19 17 15 11 6 3 7 10 11 14 17 20 23 28 32 34 36 38
24 4 3 16 15 23 12 14 5 7 5 9 9 11 9 19 18 18 15 15 15 14 13 9 7 17 20 15 12 8 2 3 6 9 12 14 18 22 26 30 32 34 36 36
32 14 15 16 13 21 25 15 25 11 10 3 4 20 2 11 15 17 17 16 13 15 13 9 9 18 16 14 11 6 2 5 7 10 13 17 22 25 27 30 32 34 34 31
26 17 13 4 2 1 23 22 16 4 4 13 6 20 5 8 12 14 19 16 14 14 10 8 8 9 15 14 10 6 5 7 9 10 15 20 24 25 27 27 28 27 26 27
25 21 31 24 29 7 6 21 24 15 10 23 18 14 3 9 13 12 12 13 14 15 13 10 8 6 14 11 7 6 8 8 8 13 18 22 22 24 22 21 24 26 27 29
17 25 22 33 17 18 22 20 27 28 30 19 33 17 13 17 19 20 14 12 14 13 12 12 9 7 12 10 9 8 8 7 10 15 19 21 21 21 21 22 25 27 28 28
11 9 26 27 26 12 4 19 24 31 33 25 27 17 12 16 10 11 15 15 16 15 13 13 9 8 10 13 10 8 6 8 12 17 20 20 20 22 22 24 25 26 29 30
9 10 6 25 26 19 11 30 12 21 27 32 24 24 12 13 17 19 16 16 17 15 14 13 10 9 14 12 10 6 5 10 15 17 18 18 20 24 26 27 27 28 29 30
7 13 5 2 13 20 20 9 29 17 13 23 24 9 17 18 17 11 13 18 17 16 14 10 8 13 13 10 7 3 6 11 14 15 16 19 21 22 24 24 25 26 27 25
6 7 3 5 10 3 5 6 15 20 34 22 17 12 11 12 12 10 11 14 17 16 14 13 21 15 11 11 5 3 7 10 12 13 15 18 20 21 21 22 23 24 22 19
6 8 3 2 5 7 1 3 7 6 19 16 20 21 16 17 13 14 11 10 12 14 17 16 17 12 13 9 4 4 5 8 9 13 17 18 19 19 20 21 22 19 17 14
5 5 14 7 3 6 5 5 7 10 7 13 22 19 23 20 22 11 16 13 15 15 19 17 18 17 13 10 6 1 4 7 12 14 15 17 17 18 19 19 17 15 12 12
9 8 4 4 4 12 10 5 12 6 2 5 8 17 24 11 10 16 17 17 12 10 12 19 18 16 14 9 4 1 3 8 10 12 14 15 16 16 15 15 14 10 11 13
6 5 8 10 7 1 15 4 3 3 5 4 7 8 9 9 7 14 15 14 11 10 14 20 21 16 13 10 5 2 4 8 9 11 13 12 13 14 14 11 10 9 13 13
2 1 3 3 5 4 10 2 6 4 4 7 8 13 13 10 15 15 12 9 8 9 12 21 15 15 15 10 5 3 3 4 7 10 11 13 12 12 11 8 8 12 15 11
2 8 6 2 4 3 3 5 6 8 10 13 11 13 13 17 13 14 8 8 8 10 16 20 17 16 13 9 7 4 2 5 6 6 7 10 10 10 9 7 13 14 12 12
5 7 8 8 9 4 6 8 11 13 11 14 17 9 6 11 10 9 9 7 8 10 16 15 16 14 12 8 5 3 3 7 7 6 7 8 9 8 7 10 11 15 16 14
Wind_Direction
186 190 211 202 202 217 223 206 208 231 261 264 234 261 263 282 297 197 194 189 181 145 80 88 102 108 110 117 127 135 143 146 153 147 144 135 119 98 64 8 296 292 290 290
187 229 215 193 208 218 228 217 216 287 271 260 272 269 257 238 237 199 195 197 184 155 137 115 105 109 109 112 115 119 123 129 130 122 107 95 89 81 55 9 334 323 330 329
201 218 203 200 204 213 227 230 215 226 334 266 274 275 221 227 214 213 204 187 167 170 163 159 126 118 117 113 117 118 117 115 112 111 112 110 115 88 61 355 344 330 320 319
224 234 195 199 216 197 235 179 224 227 150 255 166 280 281 225 230 222 168 183 174 167 164 157 145 133 127 121 123 121 119 115 111 109 97 79 63 35 5 343 328 312 307 305
221 186 210 204 213 189 234 193 210 221 214 308 209 295 227 136 225 236 210 189 176 167 167 163 161 147 138 136 133 129 124 119 112 106 93 81 72 50 359 331 319 312 307 304
227 186 192 219 209 203 170 77 112 108 128 251 172 196 265 205 200 218 181 191 179 165 161 156 157 148 139 137 133 129 126 118 113 104 91 74 39 352 331 327 322 319 318 319
233 228 283 158 162 185 180 137 170 211 194 248 168 185 248 344 189 193 194 188 178 161 150 149 149 145 144 142 141 138 130 121 115 98 58 14 352 341 331 324 322 318 317 317
212 214 214 189 199 181 188 185 184 204 201 236 168 227 235 225 280 239 189 171 153 150 149 155 157 154 154 153 148 141 137 129 114 49 11 351 337 331 324 322 316 312 308 307
203 233 143 188 171 168 186 209 207 108 32 57 214 286 281 239 296 177 162 160 172 162 160 156 160 164 162 158 154 149 141 122 59 357 342 331 329 329 327 323 315 310 311 310
218 228 198 190 189 195 183 188 184 220 196 234 233 241 220 202 212 176 175 173 165 149 147 152 166 168 165 160 152 142 124 46 3 346 335 327 324 321 317 312 308 309 309 308
222 180 273 166 191 193 189 191 205 177 174 216 254 251 196 191 192 187 180 169 162 156 160 168 171 168 162 159 157 155 147 354 338 329 319 309 310 311 310 309 311 312 309 308
212 220 234 207 205 215 201 191 195 199 212 236 159 256 228 185 181 171 168 160 160 160 165 165 159 161 160 165 170 191 237 304 316 310 306 308 311 313 313 314 314 314 307 303
200 214 216 212 295 245 215 218 211 118 80 210 160 254 10 139 156 173 158 163 163 159 151 148 148 163 172 179 194 214 261 285 294 299 305 312 317 318 317 315 311 309 304 304
196 208 213 221 222 159 214 210 219 209 220 229 219 230 157 162 159 164 167 165 159 160 161 158 156 172 180 191 204 240 261 265 280 305 315 317 320 325 323 313 309 311 311 309
215 218 217 228 228 204 211 209 214 214 224 216 241 237 202 180 175 179 167 160 162 162 157 166 167 175 188 201 220 238 250 259 304 313 316 322 326 325 317 316 316 316 313 307
193 223 215 234 228 212 227 216 209 216 225 228 237 249 168 177 155 160 173 168 173 168 170 170 170 173 192 206 217 230 242 302 316 318 322 327 328 329 327 322 321 317 316 319
151 203 179 225 220 231 239 232 217 220 223 220 221 228 150 170 178 180 169 174 175 176 171 170 172 186 195 200 214 211 286 313 323 324 330 334 330 330 329 325 323 321 319 322
178 195 189 220 208 222 248 203 226 223 228 224 237 159 177 180 186 178 180 171 176 174 165 169 180 188 183 193 185 236 312 319 324 333 333 331 330 324 322 320 320 322 323 320
138 163 167 170 200 318 232 205 205 208 236 226 226 215 184 179 153 206 181 178 174 167 166 178 191 174 175 176 187 285 306 328 338 329 324 326 326 319 320 322 322 321 322 314
161 136 153 131 193 213 18 243 188 139 248 215 211 216 175 151 189 211 160 153 145 155 161 170 173 165 170 167 199 265 323 336 326 326 329 328 324 321 320 320 322 323 312 315
153 179 208 208 197 273 216 156 141 164 255 192 188 181 167 183 207 145 141 147 158 159 163 171 174 174 171 179 201 248 337 321 329 332 329 326 328 325 327 324 330 317 318 344
161 156 171 141 156 245 157 143 178 200 335 159 174 178 184 174 118 140 155 151 141 145 152 170 162 164 170 180 184 173 320 340 334 335 339 334 333 333 329 339 327 317 341 6
192 190 179 190 210 192 176 138 124 139 143 147 128 163 152 124 136 149 152 148 144 160 160 170 165 159 171 184 178 106 360 353 343 345 345 337 337 336 339 334 323 334 9 4
272 316 121 139 211 201 190 62 135 145 138 139 137 147 144 124 139 141 143 137 145 151 156 165 156 165 178 177 160 116 25 1 349 351 344 345 334 352 335 328 6 16 12 3
202 139 140 262 271 58 104 141 129 96 109 111 118 134 128 128 132 140 139 144 149 151 159 170 170 175 172 157 151 142 69 45 27 359 349 353 337 346 327 22 36 39 33 27
186 175 179 210 169 144 156 134 137 125 124 122 119 101 73 130 134 130 137 141 144 149 162 167 172 158 154 155 148 124 91 52 54 21 3 358 346 326 8 45 57 55 56 52